Terug naar catalogus

STARLINK-4323

ActiefCommunicatieSSO
NORAD 53069·PAYLOAD·🇺🇸 United States

Gelanceerd Jul 11, 2022 vanaf Vandenberg Space Force Base

Loading…

Volgende Passages (komende 24 uur)

TLE

VersSource: CelesTrak SupGP

Epoch: Sep 15, 2026, 01:15 UTC

1 53069C 22077AC  26258.05256944 -.00036523  00000+0 -11337-2 0  2584
2 53069  97.2854  72.9740 0001605  93.5466 157.4125 15.33458221    14

Volg STARLINK-4323 in realtime met AllMySat

Download on the App Store